VJT13 LECO-LEPA

Flight info

Callsign VJT13
Flight time N/A
Altitude 29000
Route FORNO DCT DESAT DCT ZMR DCT PDT/N0281F300 M871 LASPO/N0279F260 M871 GODOX
Aircraft SF50/L-SDGRWY/L

Departure

Time 2026-05-05 17:06
Airport A Coruña Airport (LECO)

Arrival

Time N/A
Airport Palma de Mallorca Airport (LEPA)
Time Latitude Longitude Altitude Speed Heading
2026-05-05 17:01 43.30210 -8.38030 331 ft 0 kts 23°
2026-05-05 17:02 43.30211 -8.38028 331 ft 1 kts 35°
2026-05-05 17:03 43.30185 -8.38000 331 ft 11 kts 163°
2026-05-05 17:03 43.30084 -8.38062 331 ft 21 kts 199°
2026-05-05 17:03 43.29930 -8.38002 331 ft 25 kts 137°
2026-05-05 17:03 43.29473 -8.38345 331 ft 34 kts 197°
2026-05-05 17:04 43.29271 -8.38543 331 ft 33 kts 238°
2026-05-05 17:04 43.29182 -8.38559 331 ft 12 kts 73°
2026-05-05 17:04 43.29233 -8.38523 331 ft 6 kts 18°
2026-05-05 17:04 43.29316 -8.38460 331 ft 31 kts 27°
2026-05-05 17:05 43.29628 -8.38210 331 ft 71 kts 29°
2026-05-05 17:05 43.30152 -8.37787 345 ft 100 kts 28°
2026-05-05 17:05 43.30789 -8.37302 484 ft 109 kts 25°
2026-05-05 17:05 43.31516 -8.36779 566 ft 125 kts 24°
2026-05-05 17:06 43.32318 -8.36204 836 ft 135 kts 25°
2026-05-05 17:06 43.33043 -8.35304 1092 ft 148 kts 62°
2026-05-05 17:06 43.33088 -8.33890 1476 ft 155 kts 108°
2026-05-05 17:06 43.32481 -8.32602 1770 ft 164 kts 126°
2026-05-05 17:07 43.31818 -8.31214 1902 ft 182 kts 118°
2026-05-05 17:07 43.31220 -8.29736 2276 ft 183 kts 116°
2026-05-05 17:07 43.30626 -8.28144 2617 ft 186 kts 115°
2026-05-05 17:07 43.30028 -8.26493 2697 ft 203 kts 114°
2026-05-05 17:08 43.29390 -8.24701 2872 ft 213 kts 114°
2026-05-05 17:08 43.28740 -8.22870 3269 ft 211 kts 114°
2026-05-05 17:08 43.28094 -8.21024 3503 ft 216 kts 113°
2026-05-05 17:08 43.27296 -8.19342 3889 ft 216 kts 139°
2026-05-05 17:09 43.26012 -8.18269 4172 ft 219 kts 150°
2026-05-05 17:09 43.24703 -8.17186 4481 ft 219 kts 147°
2026-05-05 17:09 43.23410 -8.16045 4767 ft 220 kts 146°
2026-05-05 17:09 43.22141 -8.14904 5051 ft 221 kts 147°
2026-05-05 17:10 43.20843 -8.13739 5333 ft 222 kts 147°
2026-05-05 17:10 43.19535 -8.12564 5623 ft 223 kts 146°
2026-05-05 17:10 43.18214 -8.11377 5896 ft 224 kts 146°
2026-05-05 17:10 43.16891 -8.10188 6171 ft 224 kts 148°
2026-05-05 17:11 43.15577 -8.09009 6445 ft 225 kts 148°
2026-05-05 17:11 43.14246 -8.07816 6697 ft 226 kts 147°
2026-05-05 17:11 43.12907 -8.06617 7087 ft 230 kts 147°
2026-05-05 17:11 43.11569 -8.05418 7634 ft 230 kts 147°
2026-05-05 17:12 43.10228 -8.04217 8125 ft 232 kts 147°
2026-05-05 17:12 43.08875 -8.03001 8609 ft 233 kts 147°
2026-05-05 17:12 43.07516 -8.01788 9072 ft 235 kts 147°
2026-05-05 17:12 43.06138 -8.00556 9536 ft 236 kts 147°
2026-05-05 17:13 43.04772 -7.99337 10016 ft 236 kts 147°
2026-05-05 17:13 43.03396 -7.98107 10429 ft 239 kts 147°
2026-05-05 17:13 43.02009 -7.96870 10860 ft 240 kts 147°
2026-05-05 17:13 43.00595 -7.95608 11258 ft 243 kts 147°
2026-05-05 17:14 42.99185 -7.94351 11668 ft 244 kts 147°
2026-05-05 17:14 42.97739 -7.93063 12051 ft 247 kts 147°
2026-05-05 17:14 42.96320 -7.91798 12444 ft 248 kts 147°
2026-05-05 17:14 42.94875 -7.90512 12826 ft 249 kts 147°
2026-05-05 17:15 42.93411 -7.89208 13180 ft 252 kts 147°
2026-05-05 17:15 42.91943 -7.87901 13545 ft 253 kts 147°
2026-05-05 17:15 42.90456 -7.86580 13904 ft 254 kts 147°
2026-05-05 17:15 42.88980 -7.85270 14248 ft 255 kts 147°
2026-05-05 17:16 42.87494 -7.83950 14582 ft 256 kts 147°
2026-05-05 17:16 42.85983 -7.82609 14913 ft 258 kts 147°
2026-05-05 17:16 42.84486 -7.81284 15208 ft 261 kts 147°
2026-05-05 17:16 42.82975 -7.79946 15518 ft 262 kts 147°
2026-05-05 17:17 42.81430 -7.78578 15822 ft 263 kts 147°
2026-05-05 17:17 42.79892 -7.77217 16125 ft 264 kts 147°
2026-05-05 17:17 42.78361 -7.75863 16418 ft 266 kts 147°
2026-05-05 17:17 42.76803 -7.74486 16707 ft 267 kts 147°
2026-05-05 17:18 42.75251 -7.73116 16989 ft 268 kts 147°
2026-05-05 17:18 42.73672 -7.71723 17235 ft 270 kts 147°
2026-05-05 17:18 42.72108 -7.70342 17521 ft 271 kts 147°
2026-05-05 17:18 42.70518 -7.68941 17785 ft 272 kts 147°
2026-05-05 17:19 42.68919 -7.67532 18043 ft 273 kts 147°
2026-05-05 17:19 42.67315 -7.66119 18269 ft 275 kts 147°
2026-05-05 17:19 42.65718 -7.64713 18494 ft 277 kts 147°
2026-05-05 17:19 42.64083 -7.63276 18717 ft 279 kts 148°
2026-05-05 17:20 42.62460 -7.61851 18936 ft 281 kts 148°
2026-05-05 17:20 42.60812 -7.60403 19147 ft 283 kts 148°
2026-05-05 17:20 42.59137 -7.58932 19353 ft 285 kts 148°
2026-05-05 17:20 42.57485 -7.57483 19553 ft 287 kts 148°
2026-05-05 17:21 42.55809 -7.56014 19757 ft 289 kts 148°
2026-05-05 17:21 42.54120 -7.54534 19938 ft 291 kts 148°
2026-05-05 17:21 42.52401 -7.53029 20134 ft 293 kts 148°
2026-05-05 17:22 42.48972 -7.50030 20506 ft 296 kts 148°
2026-05-05 17:22 42.47243 -7.48504 20684 ft 298 kts 144°
2026-05-05 17:22 42.45902 -7.46406 20854 ft 300 kts 122°
2026-05-05 17:22 42.44752 -7.44034 21050 ft 301 kts 121°
2026-05-05 17:23 42.43597 -7.41661 21212 ft 303 kts 122°
2026-05-05 17:23 42.42426 -7.39281 21388 ft 304 kts 122°
2026-05-05 17:23 42.41244 -7.36890 21564 ft 305 kts 122°
2026-05-05 17:23 42.40065 -7.34511 21731 ft 306 kts 123°
2026-05-05 17:24 42.38878 -7.32117 21885 ft 308 kts 123°
2026-05-05 17:24 42.37677 -7.29698 22052 ft 308 kts 123°
2026-05-05 17:24 42.36484 -7.27298 22196 ft 310 kts 123°
2026-05-05 17:24 42.35274 -7.24865 22363 ft 310 kts 123°
2026-05-05 17:25 42.34067 -7.22442 22519 ft 311 kts 123°
2026-05-05 17:25 42.33249 -7.20800 22595 ft 313 kts 123°
2026-05-05 17:25 42.31643 -7.17577 22794 ft 314 kts 123°
2026-05-05 17:25 42.30416 -7.15118 22963 ft 313 kts 123°
2026-05-05 17:26 42.29203 -7.12689 23108 ft 314 kts 123°
2026-05-05 17:26 42.27974 -7.10232 23222 ft 316 kts 123°
2026-05-05 17:26 42.26746 -7.07778 23388 ft 315 kts 123°
2026-05-05 17:26 42.25516 -7.05320 23525 ft 316 kts 123°
2026-05-05 17:27 42.24296 -7.02885 23653 ft 316 kts 123°
2026-05-05 17:27 42.23048 -7.00396 23793 ft 317 kts 123°
2026-05-05 17:27 42.21820 -6.97949 23908 ft 318 kts 123°
2026-05-05 17:27 42.20583 -6.95487 24066 ft 317 kts 123°
2026-05-05 17:28 42.19342 -6.93017 24201 ft 317 kts 123°
2026-05-05 17:28 42.18097 -6.90542 24289 ft 319 kts 123°
2026-05-05 17:28 42.16863 -6.88093 24438 ft 318 kts 124°
2026-05-05 17:28 42.15619 -6.85624 24564 ft 318 kts 124°
2026-05-05 17:29 42.14377 -6.83162 24669 ft 319 kts 124°
2026-05-05 17:29 42.13133 -6.80699 24788 ft 319 kts 124°
2026-05-05 17:29 42.11874 -6.78206 24893 ft 320 kts 124°
2026-05-05 17:29 42.10635 -6.75754 25011 ft 320 kts 124°
2026-05-05 17:30 42.09378 -6.73270 25104 ft 321 kts 124°
2026-05-05 17:30 42.08125 -6.70796 25232 ft 320 kts 124°
2026-05-05 17:30 42.06864 -6.68308 25311 ft 321 kts 124°
2026-05-05 17:30 42.05604 -6.65824 25430 ft 321 kts 124°
2026-05-05 17:31 42.04344 -6.63342 25516 ft 322 kts 124°
2026-05-05 17:31 42.03089 -6.60872 25601 ft 322 kts 124°
2026-05-05 17:31 42.01814 -6.58365 25708 ft 322 kts 124°
2026-05-05 17:31 42.00550 -6.55880 25765 ft 324 kts 124°
2026-05-05 17:32 41.99290 -6.53405 25863 ft 324 kts 125°
2026-05-05 17:32 41.97999 -6.50873 25884 ft 327 kts 125°
2026-05-05 17:32 41.96715 -6.48358 25996 ft 327 kts 125°
2026-05-05 17:32 41.95432 -6.45845 26043 ft 329 kts 125°
2026-05-05 17:33 41.94139 -6.43317 26162 ft 328 kts 125°
2026-05-05 17:33 41.92837 -6.40769 26246 ft 328 kts 125°
2026-05-05 17:33 41.91550 -6.38255 26324 ft 329 kts 125°
2026-05-05 17:33 41.90255 -6.35729 26359 ft 331 kts 125°
2026-05-05 17:34 41.88932 -6.33148 26165 ft 340 kts 126°
2026-05-05 17:34 41.87583 -6.30521 25963 ft 348 kts 126°
2026-05-05 17:34 41.86184 -6.27797 25759 ft 354 kts 126°
2026-05-05 17:34 41.84768 -6.25041 25556 ft 359 kts 126°
2026-05-05 17:35 41.83341 -6.22269 25354 ft 363 kts 126°
2026-05-05 17:35 41.81905 -6.19482 25154 ft 367 kts 126°
2026-05-05 17:35 41.80460 -6.16680 25042 ft 366 kts 126°
2026-05-05 17:35 41.79021 -6.13892 25026 ft 363 kts 126°
2026-05-05 17:36 41.77582 -6.11106 25019 ft 360 kts 126°
2026-05-05 17:36 41.76156 -6.08349 25013 ft 358 kts 126°
2026-05-05 17:36 41.74731 -6.05598 25008 ft 356 kts 126°
2026-05-05 17:36 41.73325 -6.02885 25002 ft 354 kts 126°
2026-05-05 17:37 41.71937 -6.00207 24996 ft 353 kts 126°
2026-05-05 17:37 41.70529 -5.97495 24992 ft 352 kts 126°
2026-05-05 17:37 41.69136 -5.94814 24992 ft 350 kts 126°
2026-05-05 17:37 41.67753 -5.92155 24992 ft 349 kts 126°
2026-05-05 17:38 41.66369 -5.89496 24992 ft 348 kts 126°
2026-05-05 17:38 41.64969 -5.86808 24993 ft 348 kts 126°
2026-05-05 17:38 41.63584 -5.84150 24993 ft 347 kts 126°
2026-05-05 17:38 41.62208 -5.81513 24993 ft 347 kts 126°
2026-05-05 17:39 41.60817 -5.78850 24994 ft 347 kts 126°
2026-05-05 17:39 41.59443 -5.76223 25019 ft 346 kts 126°
2026-05-05 17:39 41.58073 -5.73603 25021 ft 346 kts 126°
2026-05-05 17:39 41.56690 -5.70961 25022 ft 346 kts 126°
2026-05-05 17:40 41.55308 -5.68324 25022 ft 347 kts 126°
2026-05-05 17:40 41.53923 -5.65683 25022 ft 347 kts 126°
2026-05-05 17:40 41.52528 -5.63053 25021 ft 347 kts 127°
2026-05-05 17:40 41.51123 -5.60433 25022 ft 348 kts 127°
2026-05-05 17:41 41.49714 -5.57812 25025 ft 348 kts 127°
2026-05-05 17:41 41.48294 -5.55171 25023 ft 349 kts 127°
2026-05-05 17:41 41.46874 -5.52536 25023 ft 349 kts 127°
2026-05-05 17:41 41.45462 -5.49917 25022 ft 349 kts 127°
2026-05-05 17:42 41.44050 -5.47300 25020 ft 350 kts 127°
2026-05-05 17:42 41.42626 -5.44664 25017 ft 351 kts 127°
2026-05-05 17:42 41.41188 -5.42005 25016 ft 351 kts 127°
2026-05-05 17:42 41.39767 -5.39376 25015 ft 352 kts 128°
2026-05-05 17:43 41.38326 -5.36714 25014 ft 352 kts 128°
2026-05-05 17:43 41.36898 -5.34081 25010 ft 353 kts 128°
2026-05-05 17:43 41.35461 -5.31432 25007 ft 353 kts 128°
2026-05-05 17:43 41.34016 -5.28769 25007 ft 353 kts 128°
2026-05-05 17:44 41.32579 -5.26124 25008 ft 353 kts 129°
2026-05-05 17:44 41.31131 -5.23459 25009 ft 353 kts 129°
2026-05-05 17:44 41.29686 -5.20807 25008 ft 353 kts 129°
2026-05-05 17:44 41.28245 -5.18161 25016 ft 353 kts 129°
2026-05-05 17:45 41.26794 -5.15498 25018 ft 354 kts 129°
2026-05-05 17:45 41.25350 -5.12854 25021 ft 354 kts 129°
2026-05-05 17:45 41.23912 -5.10222 25019 ft 355 kts 129°
2026-05-05 17:45 41.22458 -5.07560 25020 ft 355 kts 129°
2026-05-05 17:46 41.21012 -5.04920 25020 ft 355 kts 129°
2026-05-05 17:46 41.19552 -5.02250 25019 ft 356 kts 129°
2026-05-05 17:46 41.18099 -4.99599 25018 ft 356 kts 129°
2026-05-05 17:46 41.16637 -4.96933 25015 ft 356 kts 129°
2026-05-05 17:47 41.15169 -4.94261 25011 ft 357 kts 129°
2026-05-05 17:47 41.13692 -4.91573 25009 ft 357 kts 129°
2026-05-05 17:47 41.12236 -4.88924 25006 ft 358 kts 129°
2026-05-05 17:47 41.10778 -4.86275 25004 ft 358 kts 129°
2026-05-05 17:48 41.09293 -4.83580 25001 ft 358 kts 129°
2026-05-05 17:48 41.07825 -4.80917 24998 ft 359 kts 129°
2026-05-05 17:48 41.06345 -4.78235 24996 ft 359 kts 129°
2026-05-05 17:48 41.04887 -4.75595 24996 ft 359 kts 129°
2026-05-05 17:49 41.03401 -4.72907 24996 ft 360 kts 129°
2026-05-05 17:49 41.01913 -4.70219 24996 ft 360 kts 129°
2026-05-05 17:49 41.00435 -4.67549 24999 ft 360 kts 130°
2026-05-05 17:49 40.98959 -4.64886 24997 ft 360 kts 130°
2026-05-05 17:50 40.97489 -4.62235 24998 ft 361 kts 130°
2026-05-05 17:50 40.95992 -4.59540 24998 ft 361 kts 130°
2026-05-05 17:50 40.94500 -4.56855 24998 ft 362 kts 130°
2026-05-05 17:50 40.93013 -4.54180 24998 ft 362 kts 130°
2026-05-05 17:51 40.91510 -4.51481 24999 ft 362 kts 130°
2026-05-05 17:51 40.90017 -4.48802 24999 ft 363 kts 130°
2026-05-05 17:51 40.88524 -4.46124 24997 ft 363 kts 130°
2026-05-05 17:51 40.87019 -4.43429 24998 ft 363 kts 130°
2026-05-05 17:52 40.85530 -4.40762 24998 ft 364 kts 130°
2026-05-05 17:52 40.84012 -4.38048 24998 ft 364 kts 130°
2026-05-05 17:52 40.82515 -4.35371 24999 ft 365 kts 130°
2026-05-05 17:52 40.80988 -4.32644 24989 ft 365 kts 131°